Flag for Canada Weather past 2 weeks in Dawson Creek, British Columbia, Canada

Now
30 °F

Overcast.


Feels Like: 23 °F
Forecast: 31 / 46 °F
Wind: 8 mph from Northeast

Location: Dawson Creek Airport

Current Time: Apr 25, 2015 at 4:21:14 AM

Latest Report: Apr 25, 2015 at 4:00 AM


Visibility: 9 mi

Pressure: 30.07 "Hg

Humidity: 64%

Dew point: 19 °F

Location of Dawson CreekLocation

Historic Weather in Dawson Creek — Graph

°F

Dawson Creek temperature yesterday

Maximum temperature yesterday: 37 °F (at 6:00 PM)
Minimum temperature yesterday: 32 °F (at 4:00 AM)
Average temperature yesterday: 34 °F

Past Weeks' High & Low Weather Summary

 TemperatureHumidityPressure
High68 °F (Apr 21, 1:00 PM)100% (Apr 17, 5:00 AM)30.43 "Hg (Apr 17, 5:00 AM)
Low21 °F (Apr 13, 4:00 AM)21% (Apr 12, 6:00 PM)29.30 "Hg (Apr 11, 3:00 AM)
Average42 °F61%29.87 "Hg
* Reported Apr 10 3:00 AM — Apr 25 3:00 AM, Dawson Creek, Weather by CustomWeather, © 2015

Note: Actual official high and low records may vary slightly from our data, if they occured in-between our weather recording intervals... More about our weather records

Advertising

Dawson Creek weather history for previous 24 hours

 ConditionsComfort  
Time TempWeatherWind HumidityBarometerVisibility
3:00 AM
Sat, Apr 25
32 °FOvercast.6 mph60%30.06 "Hg9 mi
2:00 AM32 °FOvercast.7 mph64%30.05 "Hg9 mi
1:00 AM34 °FOvercast.8 mph65%30.03 "Hg9 mi
12:00 AM36 °FMostly cloudy.6 mph60%30.03 "Hg9 mi
11:00 PM
Fri, Apr 24
36 °FMostly cloudy.7 mph70%30.01 "Hg9 mi
10:00 PM37 °FOvercast.5 mph87%30.00 "Hg9 mi
9:00 PM37 °FMostly cloudy.7 mph87%29.99 "Hg9 mi
8:00 PM37 °FOvercast.8 mph87%29.97 "Hg9 mi
7:00 PM37 °FOvercast.9 mph87%29.95 "Hg9 mi
6:00 PM37 °FMore clouds than sun.8 mph81%29.94 "Hg9 mi
4:00 PM36 °FOvercast.3 mph87%29.93 "Hg9 mi
3:02 PM36 °FLight rain. Overcast.8 mph87%29.93 "Hg9 mi
2:00 PM34 °FLight mixture of precip. Overcast.14 mph93%29.92 "Hg9 mi
1:59 PM34 °FLight mixture of precip. Overcast.12 mph93%29.92 "Hg9 mi
1:00 PM34 °FLight snow. Overcast.9 mph93%29.91 "Hg9 mi
12:48 PM34 °FLight snow. Overcast.10 mph93%29.90 "Hg6 mi
12:01 PM34 °FLight rain. Overcast.12 mph93%29.90 "Hg9 mi
11:00 AM34 °FLight snow. Overcast.16 mph93%29.88 "Hg4 mi
10:04 AM34 °FLight snow. Mostly cloudy.14 mph93%29.87 "Hg5 mi
9:00 AM34 °FLight snow. Overcast.14 mph100%29.85 "Hg8 mi
8:02 AM34 °FLight snow. Low clouds.10 mph100%29.84 "Hg5 mi
7:00 AM34 °FLight snow. Overcast.3 mph100%29.83 "Hg6 mi
6:00 AM34 °FLight snow. Mostly cloudy.5 mph100%29.83 "Hg4 mi
5:00 AM32 °FLight snow. Mostly cloudy.2 mph100%29.82 "Hg1 mi
4:50 AM32 °FLight snow. Mostly cloudy.3 mph100%29.82 "Hg2 mi
4:00 AM32 °FLight snow. Mostly cloudy.3 mph100%29.81 "Hg1 mi
Weather by CustomWeather, © 2015

See weather overviewHow to use our weather pages